Location: Innerarity Island Observatory
(30.3139°N, 87.4867°W)
Time: 14:36:27
(UTC-05:00)

OPAL - Visible Passes

Search period start: 31 July 2014 00:00
Search period end: 10 August 2014 00:00
Orbit: 744 x 797 km, 100.2° (Epoch: 30 July)

Date Brightness Start Highest point End Pass type
(mag) Time Alt. Az. Time Alt. Az. Time Alt. Az.
31 Jul 10.3 02:52:21 10° E 02:54:07 12° ENE 02:55:53 10° NE visible
31 Jul 7.4 04:29:30 24° S 04:32:26 60° WSW 04:37:19 10° NNW visible
01 Aug 8.1 03:53:46 18° SE 03:57:17 54° ENE 04:02:07 10° N visible
01 Aug 9.2 05:34:36 10° WSW 05:36:24 12° W 05:38:13 10° WNW visible
02 Aug 9.6 03:18:31 10° ESE 03:22:19 23° ENE 03:26:08 10° NNE visible
02 Aug 8.2 04:58:20 19° SSW 05:00:59 30° W 05:05:19 10° NW visible
03 Aug 7.3 04:22:35 23° S 04:25:43 76° WSW 04:30:41 10° NNW visible
04 Aug 8.5 03:46:51 15° SE 03:50:37 43° ENE 03:55:18 10° N visible
04 Aug 9.0 05:27:09 11° SW 05:29:38 15° W 05:32:29 10° WNW visible
05 Aug 9.9 03:12:22 10° ESE 03:15:42 18° ENE 03:19:03 10° NNE visible
05 Aug 7.9 04:51:24 20° SSW 04:54:15 38° W 04:58:51 10° NNW visible
06 Aug 7.4 04:15:39 21° SSE 04:19:01 85° ENE 04:24:00 10° NNW visible
07 Aug 8.9 03:39:54 12° SE 03:43:58 35° ENE 03:48:26 10° N visible
07 Aug 8.7 05:20:12 13° SW 05:22:52 19° W 05:26:23 10° NW visible
08 Aug 10.2 03:06:23 10° E 03:09:05 15° ENE 03:11:48 10° NNE visible
08 Aug 7.6 04:44:27 21° SSW 04:47:31 48° WSW 04:52:19 10° NNW visible
09 Aug 7.7 04:08:41 18° SSE 04:12:20 68° ENE 04:17:16 10° N visible
